JAL119 RJTT-RJOO

Flight info

Callsign JAL119
Flight time 0h 46m
Altitude 30000
Route LAXAS Y56 TOHME Y54 KOHWA Y546 AGPUK MIRAI ABENO IKOMA
Aircraft B738/M-SDGIJ1LRWY/SB1

Departure

Time 2026-05-07 04:47
Airport Tokyo Haneda International Airport (RJTT)

Arrival

Time 2026-05-07 05:34
Airport Osaka Itami International Airport (RJOO)
Time Latitude Longitude Altitude Speed Heading
2026-05-07 04:30 35.54479 139.78577 28 ft 0 kts 332°
2026-05-07 04:35 35.54469 139.78583 28 ft 2 kts 332°
2026-05-07 04:35 35.54454 139.78592 28 ft 2 kts 332°
2026-05-07 04:36 35.54441 139.78601 28 ft 2 kts 332°
2026-05-07 04:36 35.54428 139.78610 28 ft 2 kts 332°
2026-05-07 04:36 35.54414 139.78618 28 ft 2 kts 332°
2026-05-07 04:36 35.54400 139.78627 28 ft 2 kts 332°
2026-05-07 04:37 35.54386 139.78636 28 ft 2 kts 332°
2026-05-07 04:37 35.54375 139.78644 28 ft 0 kts 332°
2026-05-07 04:37 35.54365 139.78651 28 ft 2 kts 311°
2026-05-07 04:37 35.54357 139.78668 28 ft 2 kts 284°
2026-05-07 04:38 35.54357 139.78690 28 ft 2 kts 256°
2026-05-07 04:38 35.54360 139.78699 28 ft 1 kts 240°
2026-05-07 04:38 35.54363 139.78705 28 ft 0 kts 239°
2026-05-07 04:41 35.54348 139.78673 28 ft 12 kts 240°
2026-05-07 04:42 35.54291 139.78552 28 ft 14 kts 240°
2026-05-07 04:42 35.54245 139.78455 28 ft 9 kts 245°
2026-05-07 04:42 35.54271 139.78387 28 ft 8 kts 327°
2026-05-07 04:42 35.54353 139.78328 28 ft 18 kts 330°
2026-05-07 04:43 35.54499 139.78224 28 ft 23 kts 332°
2026-05-07 04:43 35.54650 139.78117 28 ft 23 kts 330°
2026-05-07 04:43 35.54797 139.78014 28 ft 22 kts 330°
2026-05-07 04:43 35.54944 139.77908 28 ft 22 kts 330°
2026-05-07 04:44 35.55093 139.77803 28 ft 21 kts 330°
2026-05-07 04:44 35.55516 139.77504 28 ft 20 kts 332°
2026-05-07 04:45 35.55645 139.77412 28 ft 20 kts 330°
2026-05-07 04:45 35.55730 139.77350 28 ft 9 kts 318°
2026-05-07 04:45 35.55747 139.77278 28 ft 8 kts 253°
2026-05-07 04:45 35.55705 139.77220 28 ft 9 kts 217°
2026-05-07 04:46 35.55648 139.77179 28 ft 8 kts 193°
2026-05-07 04:46 35.55590 139.77196 28 ft 8 kts 151°
2026-05-07 04:46 35.55518 139.77246 28 ft 20 kts 150°
2026-05-07 04:46 35.55203 139.77470 28 ft 84 kts 150°
2026-05-07 04:47 35.54498 139.77969 28 ft 142 kts 150°
2026-05-07 04:47 35.53484 139.78699 248 ft 169 kts 151°
2026-05-07 04:47 35.52389 139.79497 887 ft 176 kts 153°
2026-05-07 04:47 35.51190 139.80328 1476 ft 189 kts 154°
2026-05-07 04:48 35.49851 139.81253 2034 ft 205 kts 153°
2026-05-07 04:48 35.48462 139.82234 2564 ft 223 kts 152°
2026-05-07 04:48 35.46930 139.83324 3192 ft 237 kts 152°
2026-05-07 04:48 35.45286 139.84436 3798 ft 251 kts 158°
2026-05-07 04:49 35.43435 139.84976 4456 ft 257 kts 184°
2026-05-07 04:49 35.41572 139.84367 5310 ft 255 kts 210°
2026-05-07 04:49 35.39970 139.83009 6151 ft 258 kts 219°
2026-05-07 04:49 35.38400 139.81479 6991 ft 262 kts 220°
2026-05-07 04:50 35.37036 139.79793 7915 ft 261 kts 233°
2026-05-07 04:50 35.35912 139.77779 8792 ft 265 kts 237°
2026-05-07 04:50 35.34774 139.75661 9665 ft 270 kts 236°
2026-05-07 04:50 35.33685 139.73778 10483 ft 273 kts 234°
2026-05-07 04:51 35.32533 139.71875 11010 ft 287 kts 233°
2026-05-07 04:51 35.31298 139.69869 11562 ft 300 kts 233°
2026-05-07 04:51 35.30020 139.67799 12048 ft 315 kts 233°
2026-05-07 04:51 35.28667 139.65601 12672 ft 325 kts 233°
2026-05-07 04:52 35.27315 139.63390 13467 ft 329 kts 233°
2026-05-07 04:52 35.25888 139.61050 14299 ft 332 kts 233°
2026-05-07 04:52 35.24401 139.58627 15137 ft 337 kts 233°
2026-05-07 04:52 35.22986 139.56334 15897 ft 341 kts 233°
2026-05-07 04:53 35.21560 139.54030 16582 ft 346 kts 233°
2026-05-07 04:53 35.20095 139.51665 17335 ft 350 kts 233°
2026-05-07 04:53 35.18633 139.49304 18007 ft 354 kts 234°
2026-05-07 04:53 35.17147 139.46898 18723 ft 357 kts 233°
2026-05-07 04:54 35.15643 139.44463 19459 ft 359 kts 234°
2026-05-07 04:54 35.14140 139.42032 20188 ft 361 kts 234°
2026-05-07 04:54 35.12628 139.39587 20778 ft 366 kts 234°
2026-05-07 04:54 35.11093 139.37106 21353 ft 371 kts 234°
2026-05-07 04:55 35.09449 139.34450 21999 ft 374 kts 233°
2026-05-07 04:55 35.07879 139.31917 22546 ft 379 kts 233°
2026-05-07 04:55 35.06262 139.29309 23062 ft 385 kts 233°
2026-05-07 04:55 35.04717 139.26666 23644 ft 387 kts 237°
2026-05-07 04:56 35.03431 139.23796 24322 ft 387 kts 245°
2026-05-07 04:56 35.02509 139.20634 24969 ft 389 kts 253°
2026-05-07 04:56 35.01842 139.17407 25439 ft 394 kts 256°
2026-05-07 04:56 35.01277 139.14127 26017 ft 396 kts 257°
2026-05-07 04:57 35.00729 139.10707 26561 ft 399 kts 257°
2026-05-07 04:57 35.00149 139.07063 27223 ft 399 kts 257°
2026-05-07 04:57 34.99575 139.03481 28020 ft 395 kts 257°
2026-05-07 04:57 34.99037 139.00180 28708 ft 392 kts 256°
2026-05-07 04:58 34.98582 138.96585 29488 ft 389 kts 261°
2026-05-07 04:58 34.98322 138.92925 29923 ft 395 kts 263°
2026-05-07 04:58 34.98155 138.89262 30525 ft 395 kts 264°
2026-05-07 04:58 34.98007 138.85629 31081 ft 395 kts 264°
2026-05-07 04:59 34.97863 138.82170 31680 ft 393 kts 264°
2026-05-07 04:59 34.97718 138.78888 31909 ft 388 kts 264°
2026-05-07 04:59 34.97557 138.75418 31912 ft 376 kts 263°
2026-05-07 04:59 34.97392 138.72057 31904 ft 367 kts 263°
2026-05-07 05:00 34.97035 138.65254 31918 ft 373 kts 263°
2026-05-07 05:00 34.96669 138.58438 31850 ft 374 kts 263°
2026-05-07 05:01 34.96479 138.54959 31631 ft 373 kts 263°
2026-05-07 05:01 34.96292 138.51558 31417 ft 373 kts 263°
2026-05-07 05:01 34.96108 138.48221 31213 ft 374 kts 263°
2026-05-07 05:01 34.95914 138.44762 30994 ft 374 kts 263°
2026-05-07 05:02 34.95734 138.41550 30799 ft 376 kts 263°
2026-05-07 05:02 34.95554 138.38350 30605 ft 377 kts 263°
2026-05-07 05:02 34.95374 138.35169 30412 ft 376 kts 263°
2026-05-07 05:02 34.95197 138.32014 30218 ft 375 kts 263°
2026-05-07 05:03 34.95017 138.28847 30027 ft 379 kts 262°
2026-05-07 05:03 34.94834 138.25641 29958 ft 376 kts 263°
2026-05-07 05:03 34.94458 138.19154 29955 ft 379 kts 263°
2026-05-07 05:04 34.94063 138.12337 29964 ft 375 kts 263°
2026-05-07 05:04 34.93680 138.05835 29968 ft 380 kts 263°
2026-05-07 05:05 34.93288 137.99229 29969 ft 380 kts 263°
2026-05-07 05:05 34.92874 137.92287 29972 ft 379 kts 263°
2026-05-07 05:06 34.92474 137.85654 29970 ft 380 kts 263°
2026-05-07 05:06 34.92084 137.79224 29968 ft 383 kts 263°
2026-05-07 05:07 34.91668 137.72531 29965 ft 385 kts 262°
2026-05-07 05:07 34.90745 137.65570 29958 ft 382 kts 253°
2026-05-07 05:08 34.89036 137.59390 29954 ft 381 kts 249°
2026-05-07 05:08 34.87170 137.53358 29938 ft 379 kts 248°
2026-05-07 05:09 34.86261 137.50409 29756 ft 371 kts 248°
2026-05-07 05:09 34.85356 137.47449 29495 ft 362 kts 248°
2026-05-07 05:09 34.84502 137.44588 29098 ft 357 kts 249°
2026-05-07 05:09 34.83679 137.41748 28659 ft 354 kts 249°
2026-05-07 05:10 34.82874 137.38933 28221 ft 351 kts 250°
2026-05-07 05:10 34.82082 137.36154 27778 ft 348 kts 250°
2026-05-07 05:10 34.81299 137.33414 27338 ft 345 kts 249°
2026-05-07 05:10 34.80512 137.30658 26903 ft 342 kts 250°
2026-05-07 05:11 34.79741 137.27960 26492 ft 342 kts 249°
2026-05-07 05:11 34.79115 137.25783 26149 ft 355 kts 249°
2026-05-07 05:11 34.78274 137.22862 25666 ft 361 kts 250°
2026-05-07 05:11 34.77456 137.20021 25205 ft 358 kts 250°
2026-05-07 05:12 34.76608 137.17076 24738 ft 355 kts 250°
2026-05-07 05:12 34.75743 137.14072 24258 ft 351 kts 250°
2026-05-07 05:12 34.74893 137.11125 23780 ft 348 kts 250°
2026-05-07 05:12 34.74069 137.08272 23323 ft 345 kts 250°
2026-05-07 05:13 34.73272 137.05516 22885 ft 341 kts 251°
2026-05-07 05:13 34.72495 137.02843 22462 ft 338 kts 250°
2026-05-07 05:13 34.71707 137.00131 22031 ft 335 kts 250°
2026-05-07 05:13 34.70947 136.97513 21605 ft 332 kts 251°
2026-05-07 05:14 34.70174 136.94858 21176 ft 329 kts 250°
2026-05-07 05:14 34.69422 136.92268 20750 ft 327 kts 251°
2026-05-07 05:14 34.68667 136.89670 20326 ft 324 kts 251°
2026-05-07 05:14 34.67926 136.87126 19911 ft 321 kts 250°
2026-05-07 05:15 34.67184 136.84578 19504 ft 319 kts 250°
2026-05-07 05:15 34.66452 136.82062 19089 ft 317 kts 250°
2026-05-07 05:15 34.65718 136.79541 18676 ft 314 kts 250°
2026-05-07 05:15 34.64966 136.76970 18243 ft 312 kts 250°
2026-05-07 05:16 34.64154 136.74196 17800 ft 309 kts 251°
2026-05-07 05:16 34.63438 136.71750 17397 ft 306 kts 250°
2026-05-07 05:16 34.62708 136.69261 16974 ft 304 kts 250°
2026-05-07 05:16 34.61933 136.66621 16550 ft 301 kts 250°
2026-05-07 05:17 34.61137 136.63911 16123 ft 299 kts 250°
2026-05-07 05:17 34.60376 136.61317 15664 ft 297 kts 250°
2026-05-07 05:17 34.59640 136.58813 15272 ft 295 kts 250°
2026-05-07 05:17 34.58876 136.56215 14824 ft 293 kts 250°
2026-05-07 05:18 34.58163 136.53799 14462 ft 290 kts 250°
2026-05-07 05:18 34.57464 136.51433 14238 ft 296 kts 250°
2026-05-07 05:18 34.56770 136.49086 14000 ft 298 kts 250°
2026-05-07 05:18 34.56045 136.46635 13727 ft 294 kts 250°
2026-05-07 05:19 34.55336 136.44237 13491 ft 292 kts 250°
2026-05-07 05:19 34.54653 136.41923 13278 ft 293 kts 250°
2026-05-07 05:19 34.53956 136.39571 13041 ft 293 kts 250°
2026-05-07 05:19 34.53281 136.37289 13019 ft 289 kts 250°
2026-05-07 05:20 34.52596 136.34982 13012 ft 292 kts 249°
2026-05-07 05:20 34.51912 136.32665 13004 ft 292 kts 251°
2026-05-07 05:20 34.51395 136.30295 12952 ft 293 kts 257°
2026-05-07 05:20 34.51048 136.27841 12719 ft 296 kts 260°
2026-05-07 05:21 34.50762 136.25385 12489 ft 291 kts 261°
2026-05-07 05:21 34.50145 136.20206 12003 ft 287 kts 259°
2026-05-07 05:21 34.49846 136.17848 11708 ft 283 kts 259°
2026-05-07 05:22 34.49541 136.15509 11336 ft 280 kts 259°
2026-05-07 05:22 34.49234 136.13190 10959 ft 279 kts 259°
2026-05-07 05:22 34.48931 136.10899 10589 ft 277 kts 259°
2026-05-07 05:22 34.48694 136.08592 10242 ft 275 kts 266°
2026-05-07 05:23 34.48909 136.06311 10036 ft 269 kts 283°
2026-05-07 05:23 34.49513 136.04207 9907 ft 261 kts 288°
2026-05-07 05:23 34.50171 136.02168 9509 ft 262 kts 287°
2026-05-07 05:23 34.50810 136.00105 9189 ft 260 kts 287°
2026-05-07 05:24 34.51407 135.98064 8863 ft 258 kts 285°
2026-05-07 05:24 34.51985 135.96025 8552 ft 255 kts 285°
2026-05-07 05:24 34.52549 135.94016 8235 ft 253 kts 285°
2026-05-07 05:24 34.53112 135.92011 7931 ft 251 kts 286°
2026-05-07 05:25 34.53671 135.90019 7608 ft 250 kts 286°
2026-05-07 05:25 34.54230 135.88016 7286 ft 248 kts 286°
2026-05-07 05:25 34.54771 135.86061 6988 ft 246 kts 286°
2026-05-07 05:25 34.55316 135.84085 6679 ft 245 kts 287°
2026-05-07 05:26 34.55857 135.82129 6369 ft 244 kts 287°
2026-05-07 05:26 34.56392 135.80200 6069 ft 243 kts 287°
2026-05-07 05:26 34.56931 135.78252 5833 ft 239 kts 287°
2026-05-07 05:26 34.57455 135.76360 5635 ft 234 kts 287°
2026-05-07 05:27 34.57971 135.74492 5435 ft 229 kts 287°
2026-05-07 05:27 34.58474 135.72665 5239 ft 224 kts 287°
2026-05-07 05:27 34.58967 135.70877 4997 ft 223 kts 287°
2026-05-07 05:27 34.59456 135.69099 4762 ft 219 kts 287°
2026-05-07 05:28 34.59915 135.67352 4535 ft 215 kts 285°
2026-05-07 05:28 34.60470 135.65666 4309 ft 213 kts 298°
2026-05-07 05:28 34.61358 135.64256 4115 ft 206 kts 311°
2026-05-07 05:28 34.62343 135.63049 4050 ft 194 kts 313°
2026-05-07 05:29 34.63272 135.61943 3893 ft 188 kts 313°
2026-05-07 05:29 34.64214 135.60811 3563 ft 191 kts 314°
2026-05-07 05:29 34.65140 135.59698 3318 ft 181 kts 314°
2026-05-07 05:29 34.65997 135.58675 3112 ft 169 kts 313°
2026-05-07 05:30 34.66814 135.57690 2856 ft 164 kts 313°
2026-05-07 05:30 34.67626 135.56714 2651 ft 165 kts 313°
2026-05-07 05:30 34.68440 135.55739 2430 ft 164 kts 313°
2026-05-07 05:30 34.69261 135.54753 2207 ft 164 kts 313°
2026-05-07 05:31 34.70068 135.53783 1992 ft 163 kts 313°
2026-05-07 05:31 34.70878 135.52808 1773 ft 162 kts 313°
2026-05-07 05:31 34.71652 135.51877 1559 ft 154 kts 313°
2026-05-07 05:31 34.72416 135.50960 1390 ft 153 kts 313°
2026-05-07 05:32 34.73176 135.50044 1175 ft 156 kts 313°
2026-05-07 05:32 34.73923 135.49142 945 ft 153 kts 314°
2026-05-07 05:32 34.74697 135.48245 812 ft 151 kts 314°
2026-05-07 05:32 34.75440 135.47347 601 ft 158 kts 313°
2026-05-07 05:33 34.76185 135.46429 392 ft 147 kts 313°
2026-05-07 05:33 34.76928 135.45541 206 ft 156 kts 314°
2026-05-07 05:33 34.77676 135.44626 64 ft 142 kts 314°
2026-05-07 05:33 34.78169 135.44034 65 ft 60 kts 316°
2026-05-07 05:34 34.78388 135.43790 65 ft 28 kts 327°
2026-05-07 05:34 34.78568 135.43703 65 ft 23 kts 344°
2026-05-07 05:34 34.78643 135.43687 65 ft 9 kts
2026-05-07 05:34 34.78708 135.43704 65 ft 10 kts 26°
2026-05-07 05:35 34.78776 135.43770 65 ft 12 kts 45°
2026-05-07 05:35 34.78840 135.43848 65 ft 12 kts 45°
2026-05-07 05:35 34.78921 135.43875 65 ft 12 kts 345°
2026-05-07 05:35 34.78993 135.43822 65 ft 11 kts 316°
2026-05-07 05:36 34.79041 135.43768 66 ft 7 kts 336°
2026-05-07 05:36 34.79082 135.43799 66 ft 7 kts 69°
2026-05-07 05:36 34.79102 135.43857 66 ft 7 kts 68°
2026-05-07 05:36 34.79121 135.43913 65 ft 7 kts 68°
2026-05-07 05:37 34.79127 135.43929 65 ft 0 kts 68°